Погода в Посёлке совхоза им. Воровского

Россия / Республика Татарстан     55°41′57″N   53°09′38″E
темп.,
°C
ветер,
м/с
пор.,
м/с
влажн.,
%
обл.,
%
осадки,
мм/ч
давл.,
гПа
погр.,
м
11 мая, вт
вт1100:00+15в225530 0.0 102212
03:00+14ссв2262100 0.0 102311
06:00+17в125699 0.0 102475
09:00+21в2343100 0.0 1025441
12:00+25юв3332100 0.0 10261410
15:00+25вюв3330100 0.0 10262594
18:00+22юв224794 0.0 102621
21:00+18юв2252100 0.0 102711
12 мая, ср
ср1200:00+16ююв115494 0.0 102811
03:00+14всв22584 0.0 102811
06:00+18в22540 0.0 1029122
09:00+22в23430 0.0 1029600
12:00+25вюв34350 0.0 10282175
15:00+26юв333212 0.0 10282412
18:00+23юв234715 0.0 102734
21:00+18ююв224932 0.0 102811
13 мая, чт
чт1300:00+16юв11535 0.0 102811
03:00+14ю11605 0.0 102811
06:00+18юв22533 0.0 1029121
09:00+23ююв34398 0.0 1028719
12:00+25ю343188 0.0 10281784
15:00+26ю34315 0.0 10272053
18:00+23юв22454 0.0 102618
21:00+18ююв22545 0.0 102616
14 мая, пт
пт1400:00+16ю22605 0.0 102612
03:00+15ююв225920 0.0 102611
06:00+18ююв25522 0.0 1026157
09:00+24ю56405 0.0 1026669
12:00+27ююз56326 0.0 10241629
15:00+28ююз672917 0.0 10241854
18:00+24ююз34485 0.0 102376
21:00+19ююз335534 0.0 102326
15 мая, сб
сб1500:00+17ююз345645 0.0 102342
03:00+16ююз33535 0.0 102430
06:00+19ююз365144 0.0 1024180
09:00+25ююз573826 0.0 1023719
12:00+27юз672997 0.0 10221573
15:00+28юз56298 0.0 10211741
18:00+25ююз33470 0.0 102044
21:00+20ююз33520 0.0 102023